This is the latest recevied weather packets stored in our database for station/object JA3QOS-13. If no packets are shown the sender has not sent any weather packets the latest 10 day(s).
| Time | Temp. | Humidity | Pressure | Rain* | Wind** | Luminosity | Snow |
|---|---|---|---|---|---|---|---|
| 1787805004 | 27.78° C | 84% | 1011.3 hPa | 0 mm | - | - | - |
| 1787803204 | 27.78° C | 86% | 1011.3 hPa | 0 mm | - | - | - |
| 1787801403 | 27.22° C | 87% | 1011.6 hPa | 0 mm | - | - | - |
| 1787799604 | 27.22° C | 91% | 1011.8 hPa | 0 mm | - | - | - |
| 1787797803 | 26.11° C | 95% | 1012 hPa | 0 mm | - | - | - |
| 1787796003 | 26.11° C | 93% | 1012 hPa | 0 mm | - | - | - |
| 1787794204 | 26.11° C | 93% | 1012 hPa | 0 mm | - | - | - |
| 1787792405 | 26.11° C | 92% | 1011.6 hPa | 0 mm | - | - | - |
| 1787790604 | 26.11° C | 93% | 1011.7 hPa | 0 mm | - | - | - |
| 1787788807 | 25.56° C | 94% | 1011.6 hPa | 0 mm | - | - | - |
| 1787787003 | 25.56° C | 96% | 1011.5 hPa | 0 mm | - | - | - |
| 1787785204 | 24.44° C | 99% | 1011.1 hPa | 0 mm | - | - | - |
| 1787783403 | 24.44° C | 99% | 1011.2 hPa | 0 mm | - | - | - |
| 1787781604 | 23.89° C | 99% | 1011.4 hPa | 0 mm | - | - | - |
| 1787779804 | 23.89° C | 99% | 1011.4 hPa | 0 mm | - | - | - |
| 1787778004 | 23.89° C | 99% | 1011.5 hPa | 0 mm | - | - | - |
| 1787776204 | 23.89° C | 99% | 1011.7 hPa | 0 mm | - | - | - |
| 1787774404 | 23.89° C | 99% | 1011.3 hPa | 0 mm | - | - | - |
| 1787772604 | 23.89° C | 99% | 1011.3 hPa | 0 mm | - | - | - |
| 1787770804 | 23.89° C | 99% | 1011.1 hPa | 0 mm | - | - | - |
| 1787769004 | 23.89° C | 99% | 1011 hPa | 0 mm | - | - | - |
| 1787767203 | 23.89° C | 99% | 1011 hPa | 0 mm | - | - | - |
| 1787765407 | 23.89° C | 99% | 1011.2 hPa | 0 mm | - | - | - |
| 1787763604 | 23.89° C | 99% | 1011.4 hPa | 0 mm | - | - | - |
| 1787761804 | 23.89° C | 99% | 1011.3 hPa | 0 mm | - | - | - |
* Rain latest hour (hover to see other rain measurements)
** Current wind speed in m/s (hover to see current wind gust speed)